DELTA 1 DEB, 18779

Orbit data source: Space-Track

DELTA 1 DEB, 18779 is space debris in SSO originally from a launch on Sun, 05 Mar 1978 UTC launched from the Air Force Western Test Range (AFWTR). Debris objects in space refer to the collection of defunct objects orbiting the Earth. Examples of debris include non-operational satellites, rocket bodies, and fragments generated from explosions, collisions, or faulty payload assembly.

Loading next visibility...
Identifier
18779, 1978-026HJ
Orbit
SSO
Country
Flag of USUS
Related business
Manufacturer
Unknown
Mission
Spacecraft
Bus & Motor
Unknown
Mass
Unknown
Launch date (UTC)
1978-03-05 (48 years ago)
Launch vehicle
Unknown
Launch site
Air Force Western Test Range (AFWTR)
Object type
Payload
Rocket body
Debris
Shape & HBR
Unknown shape, 0.1 m
Radar Cross Section
Medium (>0.1 m² and <1 m²)

Expand to show TLE details & history
Last TLE update: 3 days ago

TLE from 3 days ago
0 DELTA 1 DEB
1 18779U 78026HJ  26170.54350329  .00003185  00000-0  99938-3 0  9990
2 18779  99.0667 187.7647 0064790 139.0359  14.8587 14.40098665993756
Epoch: 2026-06-19T13:02Z
TLE epoch observation values (Epoch: 2026-06-19T13:02:38.684Z)
Latitude
25.59945°
Longitude
-91.30623°
Altitude
716.605 km
Speed
7.523 km/s
True Right ascension
00h 48m 30s
True Declination
25° 27' 54"
Sunlit
Object was in daylight at epoch
Visualization orbit readout
Latitude
Unknown
Longitude
Unknown
Altitude
Unknown
Speed
Unknown
Apparent Right ascension
Unknown
Apparent Declination
Unknown
Sunlit
N/A
Visualization observer readout
Local Sidereal Time
05:01:40
Azimuth
Unknown
Elevation
Unknown
Doppler factor
Unknown
Orbital elements
Apogee altitude
801.539 km
Perigee altitude
709.104 km
Semi-major axis
7,133.459 km
Eccentricity
0.00648
Inclination
99.0667°
RAAN
187.7647°
Arg. of periapsis
139.0359°
True anomaly
15.05059°
Mean anomaly
14.8587°
Eccentric anomaly
14.95449°
Mean motion
3.60241 °/min
Orbital period
99.93 mins
BSTAR
0.00099938
Loading maneuver chart data...
Computing Atmospheric mass density...
Loading historical data...
Loading historical data...
Loading historical data...
Loading historical data...
Loading historical data...
Loading historical data...
Loading historical data...

Documentation

Showing up to 5 results
|